Time,TemperatureF,DewpointF,PressureIn,WindDirection,WindDirectionDegrees,WindSpeedMPH,WindSpeedGustMPH,Humidity,HourlyPrecipIn,Conditions,Clouds,dailyrainin,SolarRadiationWatts/m^2,SoftwareType,DateUTC
2013-09-12 13:42:00,77.0,53.0,30.08,SE,133,3.0,7.0,43,-99.99,,,0.00,212.000000,,2013-09-12 20:42:00,
2013-09-12 15:43:00,75.0,42.0,30.06,NW,309,5.0,14.0,31,0.00,,,0.00,81.000000,,2013-09-12 22:43:00,
2013-09-12 15:54:00,75.0,42.0,30.06,NW,309,5.0,14.0,31,0.00,,,0.00,81.000000,,2013-09-12 22:54:00,
2013-09-12 16:04:00,75.0,42.0,30.06,NW,309,5.0,14.0,31,0.00,,,0.00,81.000000,,2013-09-12 23:04:00,
2013-09-12 16:12:00,75.0,42.0,30.06,NW,309,5.0,14.0,31,0.00,,,0.00,81.000000,,2013-09-12 23:12:00,
2013-09-12 16:43:00,74.0,46.0,30.05,NW,304,5.0,14.0,37,0.00,,,0.00,42.000000,,2013-09-12 23:43:00,
2013-09-12 16:52:00,74.0,46.0,30.05,NW,304,5.0,14.0,37,0.00,,,0.00,42.000000,,2013-09-12 23:52:00,
2013-09-12 17:01:00,74.0,46.0,30.05,NW,304,5.0,14.0,37,0.00,,,0.00,42.000000,,2013-09-13 00:01:00,
2013-09-12 17:11:00,74.0,46.0,30.05,NW,304,5.0,14.0,37,0.00,,,0.00,42.000000,,2013-09-13 00:11:00,
2013-09-12 17:42:00,73.0,41.0,30.04,WNW,293,6.0,16.0,32,0.00,,,0.00,29.000000,,2013-09-13 00:42:00,
2013-09-12 17:52:00,73.0,41.0,30.04,WNW,293,6.0,16.0,32,0.00,,,0.00,29.000000,,2013-09-13 00:52:00,
2013-09-12 18:01:00,73.0,41.0,30.04,WNW,293,6.0,16.0,32,0.00,,,0.00,29.000000,,2013-09-13 01:01:00,
2013-09-12 18:11:00,73.0,41.0,30.04,WNW,293,6.0,16.0,32,0.00,,,0.00,29.000000,,2013-09-13 01:11:00,
2013-09-12 20:45:00,69.0,39.0,30.02,WNW,299,23.0,32.0,33,0.00,,,0.00,9.000000,,2013-09-13 03:45:00,
2013-09-12 20:55:00,69.0,39.0,30.02,WNW,299,23.0,32.0,33,0.00,,,0.00,9.000000,,2013-09-13 03:55:00,
2013-09-12 21:04:00,69.0,39.0,30.02,WNW,299,23.0,32.0,33,0.00,,,0.00,9.000000,,2013-09-13 04:04:00,
2013-09-12 21:14:00,69.0,39.0,30.02,WNW,299,23.0,32.0,33,0.00,,,0.00,9.000000,,2013-09-13 04:14:00,
2013-09-12 21:44:00,69.0,44.0,30.03,WNW,296,22.0,34.0,40,0.00,,,0.00,0.000000,,2013-09-13 04:44:00,
2013-09-12 21:54:00,69.0,44.0,30.03,WNW,296,22.0,34.0,40,0.00,,,0.00,0.000000,,2013-09-13 04:54:00,
2013-09-12 22:03:00,69.0,44.0,30.03,WNW,296,22.0,34.0,40,0.00,,,0.00,0.000000,,2013-09-13 05:03:00,
2013-09-12 22:13:00,69.0,44.0,30.03,WNW,296,22.0,34.0,40,0.00,,,0.00,0.000000,,2013-09-13 05:13:00,
2013-09-12 22:43:00,69.0,41.0,30.04,WNW,297,22.0,38.0,36,0.00,,,0.00,0.000000,,2013-09-13 05:43:00,
2013-09-12 22:53:00,69.0,41.0,30.04,WNW,297,22.0,38.0,36,0.00,,,0.00,0.000000,,2013-09-13 05:53:00,
2013-09-12 23:02:00,69.0,41.0,30.04,WNW,297,22.0,38.0,36,0.00,,,0.00,0.000000,,2013-09-13 06:02:00,
2013-09-12 23:12:00,69.0,41.0,30.04,WNW,297,22.0,38.0,36,0.00,,,0.00,0.000000,,2013-09-13 06:12:00,
2013-09-12 23:42:00,72.0,39.0,30.04,WNW,303,22.0,34.0,30,0.00,,,0.00,0.000000,,2013-09-13 06:42:00,